Location: Aalen
(48.8330°N, 10.1000°E)
Time: 01:18:23
(UTC+02:00)

Transit 4A - Pass Details

Date: 01 August 2021
Orbit: 870 x 974 km, 66.8° (Epoch: 26 September)

Event Time Altitude Azimuth Distance (km) Brightness Sun altitude
Rises 04:05:12 0° 275° (W) 3,473 - -14.4°
Exits shadow 04:05:22 - 275° (W) 3,423 10.5 -14.4°
Reaches altitude 10° 04:08:31 10° 293° (WNW) 2,528 10.0 -14.0°
Maximum altitude 04:12:30 18° 337° (NNW) 1,990 10.0 -13.6°
Drops below altitude 10° 04:16:29 10° 20° (NNE) 2,530 11.4 -13.2°
Sets 04:19:48 0° 39° (NE) 3,475 13.0 -12.8°
